| time (UTC) | temp F | wind direction | speed MPH | gust MPH | rain 1hr in | rain 24hr in | rain mn in | humidity % | barometer mb |
| 20260901085426 | 76 | 304 | 0.0 | 0.0 | 0.00 | 0.00 | 0.00 | 99 | 1015.7 |
| 20260901084922 | 76 | 315 | 0.0 | 0.0 | 0.00 | 0.00 | 0.00 | 99 | 1015.9 |
| 20260901084418 | 76 | 315 | 0.0 | 1.0 | 0.00 | 0.00 | 0.00 | 99 | 1015.7 |
| 20260901083913 | 76 | 220 | 0.0 | 0.0 | 0.00 | 0.00 | 0.00 | 99 | 1015.9 |
| 20260901083408 | 75 | 149 | 0.0 | 0.0 | 0.00 | 0.00 | 0.00 | 99 | 1015.9 |
| 20260901082906 | 75 | 318 | 0.0 | 2.0 | 0.00 | 0.00 | 0.00 | 99 | 1015.7 |
| 20260901082401 | 75 | 312 | 0.0 | 1.0 | 0.00 | 0.00 | 0.00 | 99 | 1015.7 |
| 20260901081856 | 75 | 167 | 0.0 | 0.0 | 0.00 | 0.00 | 0.00 | 99 | 1015.7 |
| 20260901081352 | 75 | 319 | 0.0 | 0.0 | 0.00 | 0.00 | 0.00 | 98 | 1015.8 |
| 20260901080851 | 75 | 323 | 0.0 | 0.0 | 0.00 | 0.00 | 0.00 | 98 | 1015.8 |
| 20260901080346 | 75 | 239 | 0.0 | 0.0 | 0.00 | 0.00 | 0.00 | 98 | 1015.9 |
| 20260901075846 | 75 | 325 | 0.0 | 0.0 | 0.00 | 0.00 | 0.00 | 98 | 1015.8 |
| 20260901075341 | 75 | 337 | 0.0 | 0.0 | 0.00 | 0.00 | 0.00 | 98 | 1016.2 |
| 20260901074836 | 75 | 325 | 0.0 | 0.0 | 0.00 | 0.00 | 0.00 | 98 | 1016.0 |
| 20260901074330 | 75 | 44 | 0.0 | 0.0 | 0.00 | 0.00 | 0.00 | 98 | 1015.8 |
| 20260901073826 | 75 | 7 | 0.0 | 0.0 | 0.00 | 0.00 | 0.00 | 98 | 1015.9 |
| 20260901073321 | 75 | 311 | 0.0 | 0.0 | 0.00 | 0.00 | 0.00 | 98 | 1015.9 |
| 20260901072817 | 75 | 294 | 0.0 | 0.0 | 0.00 | 0.00 | 0.00 | 98 | 1015.9 |
| 20260901072317 | 75 | 297 | 0.0 | 0.0 | 0.00 | 0.00 | 0.00 | 98 | 1016.2 |
| 20260901071813 | 75 | 329 | 0.0 | 0.0 | 0.00 | 0.00 | 0.00 | 98 | 1016.1 |
| 20260901071311 | 75 | 30 | 0.0 | 0.0 | 0.00 | 0.00 | 0.00 | 98 | 1016.0 |
| 20260901070810 | 75 | 297 | 0.0 | 0.0 | 0.00 | 0.00 | 0.00 | 98 | 1016.1 |
| 20260901070305 | 75 | 297 | 0.0 | 0.0 | 0.00 | 0.00 | 0.00 | 98 | 1016.2 |
| 20260901065805 | 75 | 312 | 0.0 | 1.0 | 0.00 | 0.00 | 0.00 | 98 | 1016.0 |
| 20260901065300 | 75 | 341 | 0.0 | 0.0 | 0.00 | 0.00 | 0.00 | 98 | 1016.2 |
| 20260901064756 | 75 | 341 | 0.0 | 0.0 | 0.00 | 0.00 | 0.00 | 98 | 1016.1 |
| 20260901064252 | 75 | 312 | 0.0 | 0.0 | 0.00 | 0.00 | 0.00 | 98 | 1016.3 |
| 20260901063749 | 75 | 57 | 0.0 | 0.0 | 0.00 | 0.00 | 0.00 | 98 | 1016.4 |
| 20260901063245 | 75 | 311 | 0.0 | 0.0 | 0.00 | 0.00 | 0.00 | 98 | 1016.3 |
| 20260901062741 | 75 | 311 | 0.0 | 0.0 | 0.00 | 0.00 | 0.00 | 98 | 1016.4 |
| 20260901062237 | 75 | 293 | 0.0 | 0.0 | 0.00 | 0.00 | 0.00 | 98 | 1016.7 |
| 20260901061733 | 75 | 299 | 0.0 | 0.0 | 0.00 | 0.00 | 0.00 | 98 | 1016.8 |
| 20260901061232 | 76 | 268 | 0.0 | 0.0 | 0.00 | 0.00 | 0.00 | 98 | 1016.7 |
| 20260901060727 | 76 | 294 | 0.0 | 1.0 | 0.00 | 0.00 | 0.00 | 98 | 1017.0 |
| 20260901060223 | 76 | 299 | 1.0 | 1.0 | 0.00 | 0.00 | 0.00 | 98 | 1016.9 |
| 20260901055718 | 76 | 298 | 0.0 | 1.0 | 0.00 | 0.00 | 0.00 | 98 | 1017.0 |
| 20260901055214 | 76 | 319 | 0.0 | 1.0 | 0.00 | 0.00 | 0.00 | 98 | 1017.3 |
| 20260901054711 | 76 | 311 | 0.0 | 1.0 | 0.00 | 0.00 | 0.00 | 98 | 1017.2 |
| 20260901054208 | 76 | 311 | 0.0 | 1.0 | 0.00 | 0.00 | 0.00 | 98 | 1017.1 |
| 20260901053703 | 76 | 328 | 0.0 | 1.0 | 0.00 | 0.00 | 0.00 | 98 | 1017.3 |
| 20260901053158 | 76 | 308 | 0.0 | 1.0 | 0.00 | 0.00 | 0.00 | 98 | 1017.1 |
| 20260901052654 | 76 | 319 | 0.0 | 0.0 | 0.00 | 0.00 | 0.00 | 98 | 1017.2 |
| 20260901052149 | 76 | 319 | 0.0 | 0.0 | 0.00 | 0.00 | 0.00 | 98 | 1017.2 |
| 20260901051648 | 76 | 287 | 0.0 | 1.0 | 0.00 | 0.00 | 0.00 | 98 | 1017.4 |
| 20260901051148 | 76 | 279 | 1.0 | 1.0 | 0.00 | 0.00 | 0.00 | 97 | 1017.4 |
| 20260901050643 | 76 | 287 | 0.0 | 1.0 | 0.00 | 0.00 | 0.00 | 97 | 1017.5 |
| 20260901050138 | 76 | 315 | 0.0 | 0.0 | 0.00 | 0.00 | 0.00 | 97 | 1017.5 |
| 20260901045638 | 76 | 303 | 0.0 | 1.0 | 0.00 | 0.00 | 0.00 | 97 | 1017.6 |
| 20260901045133 | 76 | 328 | 0.0 | 0.0 | 0.00 | 0.00 | 0.00 | 97 | 1017.6 |
| 20260901044628 | 76 | 300 | 0.0 | 0.0 | 0.00 | 0.00 | 0.00 | 97 | 1017.8 |
| 20260901044125 | 76 | 303 | 0.0 | 1.0 | 0.00 | 0.00 | 0.00 | 97 | 1017.6 |
| 20260901043620 | 76 | 312 | 0.0 | 1.0 | 0.00 | 0.00 | 0.00 | 97 | 1017.8 |
| 20260901043116 | 76 | 328 | 0.0 | 0.0 | 0.00 | 0.00 | 0.00 | 96 | 1017.7 |
| 20260901042614 | 76 | 303 | 0.0 | 1.0 | 0.00 | 0.00 | 0.00 | 96 | 1017.6 |
| 20260901042110 | 76 | 328 | 0.0 | 1.0 | 0.00 | 0.00 | 0.00 | 96 | 1017.6 |
| 20260901041606 | 76 | 308 | 0.0 | 2.0 | 0.00 | 0.00 | 0.00 | 96 | 1017.5 |
| 20260901041100 | 76 | 351 | 0.0 | 2.0 | 0.00 | 0.00 | 0.00 | 97 | 1017.5 |
| 20260901040600 | 77 | 289 | 2.0 | 2.0 | 0.00 | 0.00 | 0.00 | 97 | 1017.8 |
| 20260901040054 | 77 | 297 | 0.0 | 0.0 | 0.00 | 0.09 | 0.09 | 97 | 1017.4 |
| 20260901035552 | 77 | 305 | 0.0 | 2.0 | 0.00 | 0.09 | 0.09 | 97 | 1017.5 |
| 20260901035051 | 77 | 315 | 0.0 | 1.0 | 0.02 | 0.09 | 0.09 | 97 | 1017.4 |
| 20260901034551 | 77 | 289 | 1.0 | 1.0 | 0.02 | 0.09 | 0.09 | 97 | 1017.4 |
| 20260901034051 | 77 | 238 | 0.0 | 0.0 | 0.00 | 0.08 | 0.08 | 97 | 1017.6 |
| 20260901033550 | 77 | 308 | 0.0 | 1.0 | 0.00 | 0.08 | 0.08 | 97 | 1017.6 |
| 20260901033045 | 77 | 337 | 0.0 | 2.0 | 0.00 | 0.08 | 0.08 | 97 | 1017.4 |
| 20260901032544 | 77 | 311 | 0.0 | 1.0 | 0.00 | 0.08 | 0.08 | 97 | 1017.6 |
| 20260901032039 | 77 | 315 | 0.0 | 0.0 | 0.00 | 0.08 | 0.08 | 97 | 1017.6 |
| 20260901031534 | 77 | 125 | 0.0 | 1.0 | 0.00 | 0.08 | 0.08 | 97 | 1017.6 |
| 20260901031030 | 77 | 266 | 0.0 | 1.0 | 0.00 | 0.08 | 0.08 | 97 | 1017.8 |
| 20260901030530 | 78 | 319 | 0.0 | 0.0 | 0.00 | 0.08 | 0.08 | 97 | 1017.8 |
| 20260901030031 | 78 | 293 | 0.0 | 1.0 | 0.00 | 0.08 | 0.08 | 97 | 1017.9 |
| 20260901025525 | 78 | 277 | 0.0 | 1.0 | 0.00 | 0.08 | 0.08 | 97 | 1017.9 |
| 20260901025024 | 78 | 308 | 0.0 | 1.0 | 0.00 | 0.08 | 0.08 | 97 | 1017.8 |
| 20260901024519 | 78 | 327 | 0.0 | 0.0 | 0.00 | 0.08 | 0.08 | 97 | 1017.7 |
| 20260901024018 | 78 | 323 | 0.0 | 1.0 | 0.00 | 0.08 | 0.08 | 97 | 1017.7 |
| 20260901023512 | 78 | 315 | 0.0 | 0.0 | 0.00 | 0.08 | 0.08 | 97 | 1017.8 |
| 20260901023008 | 78 | 288 | 0.0 | 0.0 | 0.00 | 0.08 | 0.08 | 97 | 1017.6 |
| 20260901022504 | 78 | 277 | 0.0 | 0.0 | 0.00 | 0.08 | 0.08 | 97 | 1017.9 |
| 20260901022003 | 78 | 319 | 0.0 | 0.0 | 0.00 | 0.08 | 0.08 | 97 | 1017.5 |
| 20260901021459 | 78 | 299 | 0.0 | 0.0 | 0.00 | 0.08 | 0.08 | 97 | 1017.6 |
| 20260901020954 | 78 | 293 | 0.0 | 1.0 | 0.00 | 0.08 | 0.08 | 97 | 1017.7 |
| 20260901020450 | 78 | 289 | 1.0 | 1.0 | 0.00 | 0.08 | 0.08 | 96 | 1017.6 |
| 20260901015948 | 78 | 317 | 1.0 | 1.0 | 0.00 | 0.08 | 0.08 | 96 | 1017.5 |
| 20260901015445 | 78 | 288 | 0.0 | 0.0 | 0.00 | 0.08 | 0.08 | 96 | 1017.3 |
| 20260901014945 | 78 | 240 | 0.0 | 1.0 | 0.00 | 0.08 | 0.08 | 96 | 1017.4 |
| 20260901014441 | 78 | 300 | 0.0 | 1.0 | 0.00 | 0.08 | 0.08 | 96 | 1017.3 |
| 20260901013936 | 78 | 324 | 1.0 | 1.0 | 0.00 | 0.08 | 0.08 | 96 | 1017.0 |
| 20260901013432 | 78 | 289 | 0.0 | 1.0 | 0.00 | 0.08 | 0.08 | 96 | 1017.4 |
| 20260901012927 | 78 | 280 | 0.0 | 1.0 | 0.00 | 0.08 | 0.08 | 96 | 1017.1 |
| 20260901012422 | 78 | 324 | 1.0 | 1.0 | 0.00 | 0.08 | 0.08 | 96 | 1016.9 |
| 20260901011917 | 78 | 330 | 0.0 | 0.0 | 0.00 | 0.08 | 0.08 | 96 | 1016.9 |
| 20260901011414 | 78 | 304 | 0.0 | 1.0 | 0.00 | 0.08 | 0.08 | 96 | 1016.8 |
| 20260901010911 | 78 | 308 | 0.0 | 1.0 | 0.00 | 0.08 | 0.08 | 96 | 1016.9 |
| 20260901010407 | 78 | 315 | 0.0 | 1.0 | 0.00 | 0.08 | 0.08 | 95 | 1017.2 |
| 20260901005906 | 78 | 294 | 0.0 | 1.0 | 0.00 | 0.08 | 0.08 | 95 | 1016.9 |
| 20260901005401 | 78 | 320 | 0.0 | 0.0 | 0.02 | 0.08 | 0.08 | 95 | 1017.0 |
| 20260901004856 | 78 | 305 | 0.0 | 0.0 | 0.02 | 0.08 | 0.08 | 95 | 1016.8 |
| 20260901004355 | 78 | 305 | 0.0 | 0.0 | 0.00 | 0.08 | 0.08 | 95 | 1017.0 |
| 20260901003850 | 78 | 301 | 0.0 | 0.0 | 0.02 | 0.08 | 0.08 | 95 | 1016.6 |
| 20260901003345 | 78 | 297 | 0.0 | 1.0 | 0.02 | 0.08 | 0.08 | 94 | 1016.9 |
| 20260901002843 | 78 | 318 | 0.0 | 0.0 | 0.02 | 0.07 | 0.07 | 94 | 1016.6 |
| 20260901002343 | 78 | 335 | 0.0 | 0.0 | 0.02 | 0.07 | 0.07 | 94 | 1016.5 |
| 20260901001843 | 78 | 310 | 1.0 | 1.0 | 0.00 | 0.07 | 0.07 | 94 | 1016.9 |
| 20260901001339 | 78 | 279 | 0.0 | 1.0 | 0.02 | 0.07 | 0.07 | 93 | 1016.6 |
| 20260901000835 | 78 | 239 | 0.0 | 1.0 | 0.02 | 0.07 | 0.07 | 94 | 1016.8 |
| 20260901000330 | 78 | 277 | 0.0 | 0.0 | 0.00 | 0.07 | 0.07 | 93 | 1016.4 |
| 20260831235828 | 78 | 257 | 0.0 | 0.0 | 0.00 | 0.07 | 0.07 | 93 | 1016.7 |
| 20260831235324 | 78 | 304 | 0.0 | 0.0 | 0.00 | 0.07 | 0.07 | 92 | 1016.4 |
| 20260831234824 | 78 | 333 | 1.0 | 1.0 | 0.00 | 0.07 | 0.07 | 92 | 1016.8 |
| 20260831234319 | 78 | 264 | 0.0 | 1.0 | 0.00 | 0.07 | 0.07 | 92 | 1016.5 |
| 20260831233814 | 79 | 287 | 0.0 | 1.0 | 0.00 | 0.07 | 0.07 | 92 | 1016.3 |
| 20260831233309 | 79 | 311 | 0.0 | 1.0 | 0.02 | 0.07 | 0.07 | 93 | 1016.4 |
| 20260831232804 | 79 | 124 | 0.0 | 0.0 | 0.02 | 0.07 | 0.07 | 94 | 1016.5 |
| 20260831232301 | 79 | 301 | 0.0 | 0.0 | 0.00 | 0.06 | 0.06 | 94 | 1016.5 |
| 20260831231756 | 79 | 331 | 0.0 | 1.0 | 0.02 | 0.06 | 0.06 | 93 | 1016.5 |
| 20260831231253 | 79 | 303 | 0.0 | 0.0 | 0.02 | 0.06 | 0.06 | 93 | 1016.6 |
| 20260831230748 | 78 | 277 | 0.0 | 0.0 | 0.00 | 0.06 | 0.06 | 92 | 1016.7 |
| 20260831230242 | 78 | 294 | 0.0 | 2.0 | 0.00 | 0.06 | 0.06 | 92 | 1016.6 |
| 20260831225742 | 78 | 306 | 1.0 | 2.0 | 0.00 | 0.06 | 0.06 | 92 | 1016.3 |
| 20260831225237 | 78 | 299 | 0.0 | 1.0 | 0.00 | 0.06 | 0.06 | 92 | 1016.3 |
| 20260831224732 | 78 | 109 | 0.0 | 2.0 | 0.00 | 0.06 | 0.06 | 92 | 1016.4 |
| 20260831224228 | 78 | 214 | 0.0 | 0.0 | 0.00 | 0.06 | 0.06 | 92 | 1016.6 |
| 20260831223723 | 78 | 96 | 0.0 | 1.0 | 0.00 | 0.06 | 0.06 | 92 | 1016.6 |
| 20260831223219 | 78 | 6 | 0.0 | 1.0 | 0.00 | 0.06 | 0.06 | 90 | 1016.7 |
| 20260831222715 | 78 | 322 | 0.0 | 2.0 | 0.00 | 0.06 | 0.06 | 91 | 1016.5 |
| 20260831222211 | 78 | 266 | 2.0 | 2.0 | 0.00 | 0.06 | 0.06 | 91 | 1016.6 |
| 20260831221706 | 78 | 269 | 0.0 | 1.0 | 0.02 | 0.06 | 0.06 | 92 | 1016.6 |
| 20260831221201 | 78 | 132 | 0.0 | 0.0 | 0.02 | 0.06 | 0.06 | 91 | 1016.5 |
| 20260831220655 | 77 | 132 | 0.0 | 0.0 | 0.02 | 0.06 | 0.06 | 92 | 1016.7 |
| 20260831220151 | 77 | 192 | 0.0 | 0.0 | 0.02 | 0.06 | 0.06 | 91 | 1016.8 |
| 20260831215646 | 77 | 169 | 0.0 | 1.0 | 0.00 | 0.05 | 0.05 | 90 | 1017.0 |
| 20260831215142 | 77 | 255 | 1.0 | 2.0 | 0.02 | 0.05 | 0.05 | 89 | 1017.1 |
| 20260831214639 | 77 | 267 | 2.0 | 3.0 | 0.02 | 0.05 | 0.05 | 88 | 1017.5 |
| 20260831214135 | 77 | 318 | 0.0 | 2.0 | 0.02 | 0.05 | 0.05 | 88 | 1017.5 |
| 20260831213631 | 77 | 267 | 1.0 | 4.0 | 0.02 | 0.04 | 0.04 | 87 | 1017.4 |
| 20260831213126 | 78 | 286 | 5.0 | 5.0 | 0.05 | 0.04 | 0.04 | 85 | 1017.5 |
| 20260831212622 | 79 | 272 | 2.0 | 4.0 | 0.05 | 0.04 | 0.04 | 86 | 1017.6 |
| 20260831212119 | 79 | 289 | 2.0 | 4.0 | 0.07 | 0.03 | 0.03 | 88 | 1017.4 |
| 20260831211618 | 80 | 290 | 4.0 | 9.0 | 0.07 | 0.03 | 0.03 | 86 | 1017.2 |
| 20260831211118 | 81 | 285 | 2.0 | 3.0 | 0.05 | 0.02 | 0.02 | 86 | 1017.2 |
| 20260831210612 | 82 | 276 | 2.0 | 5.0 | 0.05 | 0.02 | 0.02 | 85 | 1017.0 |
| 20260831210109 | 82 | 275 | 1.0 | 2.0 | 0.02 | 0.01 | 0.01 | 83 | 1017.3 |
| 20260831205608 | 82 | 331 | 0.0 | 1.0 | 0.00 | 0.01 | 0.01 | 83 | 1017.0 |
| 20260831205105 | 82 | 231 | 1.0 | 2.0 | 0.00 | 0.01 | 0.01 | 84 | 1017.2 |
| 20260831204604 | 82 | 238 | 1.0 | 4.0 | 0.00 | 0.01 | 0.01 | 82 | 1016.9 |
| 20260831204103 | 81 | 210 | 0.0 | 6.0 | 0.00 | 0.01 | 0.01 | 82 | 1016.8 |
| 20260831203602 | 82 | 145 | 1.0 | 2.0 | 0.00 | 0.01 | 0.01 | 83 | 1017.1 |
| 20260831203102 | 82 | 135 | 0.0 | 2.0 | 0.00 | 0.01 | 0.01 | 83 | 1016.9 |
| 20260831202602 | 82 | 124 | 0.0 | 6.0 | 0.00 | 0.01 | 0.01 | 81 | 1016.8 |
| 20260831202101 | 82 | 239 | 4.0 | 4.0 | 0.00 | 0.01 | 0.01 | 81 | 1016.9 |
| 20260831201600 | 83 | 218 | 1.0 | 3.0 | 0.00 | 0.01 | 0.01 | 82 | 1016.8 |
| 20260831201055 | 82 | 162 | 1.0 | 4.0 | 0.00 | 0.01 | 0.01 | 82 | 1016.8 |
| 20260831200551 | 82 | 216 | 4.0 | 5.0 | 0.00 | 0.01 | 0.01 | 82 | 1017.0 |
| 20260831200051 | 82 | 193 | 2.0 | 5.0 | 0.00 | 0.01 | 0.01 | 81 | 1017.0 |
| 20260831195547 | 83 | 222 | 2.0 | 3.0 | 0.00 | 0.01 | 0.01 | 81 | 1016.8 |
| 20260831195042 | 83 | 230 | 2.0 | 2.0 | 0.00 | 0.01 | 0.01 | 82 | 1016.9 |
| 20260831194537 | 82 | 222 | 1.0 | 3.0 | 0.00 | 0.01 | 0.01 | 81 | 1016.6 |
| 20260831194032 | 82 | 212 | 3.0 | 5.0 | 0.00 | 0.01 | 0.01 | 80 | 1016.8 |
| 20260831193527 | 83 | 237 | 1.0 | 6.0 | 0.00 | 0.01 | 0.01 | 80 | 1017.0 |
| 20260831193022 | 84 | 212 | 4.0 | 5.0 | 0.00 | 0.01 | 0.01 | 80 | 1017.2 |
| 20260831192517 | 84 | 146 | 4.0 | 4.0 | 0.00 | 0.01 | 0.01 | 78 | 1017.0 |
| 20260831192013 | 84 | 160 | 1.0 | 5.0 | 0.00 | 0.01 | 0.01 | 79 | 1017.0 |
| 20260831191509 | 85 | 174 | 1.0 | 2.0 | 0.00 | 0.01 | 0.01 | 76 | 1016.8 |
| 20260831191004 | 84 | 120 | 2.0 | 5.0 | 0.02 | 0.01 | 0.01 | 75 | 1017.1 |
| 20260831190500 | 85 | 149 | 1.0 | 5.0 | 0.02 | 0.01 | 0.01 | 75 | 1017.0 |
| 20260831185958 | 85 | 144 | 2.0 | 4.0 | 0.00 | 0.00 | 0.00 | 73 | 1016.9 |
| 20260831185454 | 85 | 67 | 2.0 | 5.0 | 0.00 | 0.00 | 0.00 | 71 | 1017.2 |
| 20260831184954 | 85 | 123 | 4.0 | 7.0 | 0.00 | 0.00 | 0.00 | 70 | 1017.1 |
| 20260831184449 | 86 | 169 | 1.0 | 4.0 | 0.00 | 0.00 | 0.00 | 70 | 1017.2 |
| 20260831183944 | 86 | 163 | 2.0 | 5.0 | 0.00 | 0.00 | 0.00 | 69 | 1017.1 |
| 20260831183443 | 87 | 118 | 4.0 | 7.0 | 0.00 | 0.00 | 0.00 | 66 | 1017.3 |
| 20260831182943 | 87 | 149 | 5.0 | 9.0 | 0.00 | 0.00 | 0.00 | 67 | 1017.6 |
| 20260831182438 | 89 | 136 | 2.0 | 6.0 | 0.00 | 0.00 | 0.00 | 66 | 1017.3 |
| 20260831181933 | 89 | 192 | 3.0 | 6.0 | 0.00 | 0.00 | 0.00 | 68 | 1017.0 |
| 20260831181429 | 88 | 186 | 2.0 | 5.0 | 0.00 | 0.00 | 0.00 | 68 | 1016.9 |
| 20260831180924 | 88 | 111 | 7.0 | 11.0 | 0.00 | 0.00 | 0.00 | 66 | 1017.0 |
| 20260831180423 | 89 | 222 | 2.0 | 5.0 | 0.00 | 0.00 | 0.00 | 64 | 1017.1 |
| 20260831175923 | 88 | 138 | 1.0 | 6.0 | 0.00 | 0.00 | 0.00 | 65 | 1017.1 |
| 20260831175420 | 89 | 111 | 3.0 | 6.0 | 0.00 | 0.00 | 0.00 | 66 | 1017.3 |
| 20260831174915 | 89 | 166 | 3.0 | 7.0 | 0.00 | 0.00 | 0.00 | 64 | 1017.0 |
| 20260831174411 | 88 | 316 | 3.0 | 3.0 | 0.00 | 0.00 | 0.00 | 69 | 1017.1 |
| 20260831173910 | 88 | 66 | 3.0 | 7.0 | 0.00 | 0.00 | 0.00 | 68 | 1017.1 |
| 20260831173409 | 86 | 179 | 2.0 | 7.0 | 0.00 | 0.00 | 0.00 | 70 | 1017.5 |
| 20260831172905 | 85 | 12 | 3.0 | 5.0 | 0.00 | 0.00 | 0.00 | 68 | 1017.3 |
| 20260831172400 | 85 | 32 | 3.0 | 8.0 | 0.00 | 0.00 | 0.00 | 68 | 1017.3 |
| 20260831171900 | 86 | 136 | 0.0 | 6.0 | 0.00 | 0.00 | 0.00 | 65 | 1017.4 |
| 20260831171356 | 88 | 166 | 2.0 | 5.0 | 0.00 | 0.00 | 0.00 | 62 | 1017.7 |
| 20260831170853 | 92 | 69 | 4.0 | 7.0 | 0.00 | 0.00 | 0.00 | 57 | 1017.6 |
| 20260831170349 | 92 | 72 | 1.0 | 4.0 | 0.00 | 0.00 | 0.00 | 55 | 1017.5 |
| 20260831165845 | 91 | 64 | 0.0 | 5.0 | 0.00 | 0.00 | 0.00 | 58 | 1017.6 |
| 20260831165341 | 91 | 296 | 1.0 | 3.0 | 0.00 | 0.00 | 0.00 | 59 | 1017.9 |
| 20260831164837 | 91 | 49 | 0.0 | 2.0 | 0.00 | 0.00 | 0.00 | 59 | 1017.9 |
| 20260831164333 | 92 | 197 | 0.0 | 3.0 | 0.00 | 0.00 | 0.00 | 60 | 1017.6 |
| 20260831163828 | 93 | 292 | 2.0 | 3.0 | 0.00 | 0.00 | 0.00 | 58 | 1017.8 |
| 20260831163324 | 92 | 198 | 2.0 | 4.0 | 0.00 | 0.00 | 0.00 | 60 | 1018.0 |
| 20260831162822 | 91 | 51 | 2.0 | 2.0 | 0.00 | 0.00 | 0.00 | 59 | 1017.9 |
| 20260831162318 | 90 | 148 | 1.0 | 2.0 | 0.00 | 0.00 | 0.00 | 59 | 1017.9 |
| 20260831161816 | 91 | 264 | 2.0 | 3.0 | 0.00 | 0.00 | 0.00 | 60 | 1018.0 |
| 20260831161313 | 93 | 260 | 2.0 | 2.0 | 0.00 | 0.00 | 0.00 | 57 | 1018.2 |
| 20260831160814 | 91 | 245 | 2.0 | 2.0 | 0.00 | 0.00 | 0.00 | 56 | 1018.1 |
| 20260831160308 | 92 | 170 | 1.0 | 3.0 | 0.00 | 0.00 | 0.00 | 58 | 1018.2 |
| 20260831155808 | 93 | 224 | 0.0 | 3.0 | 0.00 | 0.00 | 0.00 | 60 | 1018.3 |
| 20260831155306 | 92 | 72 | 2.0 | 3.0 | 0.00 | 0.00 | 0.00 | 59 | 1018.5 |
| 20260831154759 | 91 | 54 | 2.0 | 4.0 | 0.00 | 0.00 | 0.00 | 58 | 1018.7 |
| 20260831154255 | 90 | 149 | 2.0 | 4.0 | 0.00 | 0.00 | 0.00 | 59 | 1018.3 |
| 20260831153754 | 91 | 163 | 2.0 | 8.0 | 0.00 | 0.00 | 0.00 | 59 | 1018.5 |
| 20260831153249 | 91 | 127 | 5.0 | 5.0 | 0.00 | 0.00 | 0.00 | 59 | 1018.6 |
| 20260831152745 | 90 | 237 | 2.0 | 3.0 | 0.00 | 0.00 | 0.00 | 62 | 1018.6 |
| 20260831152241 | 89 | 143 | 2.0 | 4.0 | 0.00 | 0.00 | 0.00 | 59 | 1018.7 |
| 20260831151736 | 89 | 197 | 3.0 | 4.0 | 0.00 | 0.00 | 0.00 | 63 | 1018.3 |
| 20260831151235 | 90 | 181 | 2.0 | 4.0 | 0.00 | 0.00 | 0.00 | 65 | 1018.4 |
| 20260831150730 | 89 | 129 | 3.0 | 3.0 | 0.00 | 0.00 | 0.00 | 63 | 1018.4 |
| 20260831150226 | 89 | 124 | 4.0 | 4.0 | 0.00 | 0.00 | 0.00 | 64 | 1018.3 |
| 20260831145724 | 90 | 300 | 2.0 | 3.0 | 0.00 | 0.00 | 0.00 | 65 | 1018.4 |
| 20260831145221 | 89 | 161 | 0.0 | 2.0 | 0.00 | 0.00 | 0.00 | 66 | 1018.3 |
| 20260831144716 | 87 | 204 | 0.0 | 2.0 | 0.00 | 0.00 | 0.00 | 69 | 1018.3 |
| 20260831144213 | 86 | 229 | 1.0 | 2.0 | 0.00 | 0.00 | 0.00 | 69 | 1018.2 |
| 20260831143712 | 87 | 197 | 1.0 | 2.0 | 0.00 | 0.00 | 0.00 | 69 | 1018.2 |
| 20260831143207 | 87 | 227 | 0.0 | 2.0 | 0.00 | 0.00 | 0.00 | 69 | 1018.4 |
| 20260831142703 | 86 | 157 | 3.0 | 3.0 | 0.00 | 0.00 | 0.00 | 70 | 1018.2 |
| 20260831142159 | 86 | 131 | 4.0 | 6.0 | 0.00 | 0.00 | 0.00 | 68 | 1017.8 |
| 20260831141657 | 87 | 325 | 2.0 | 2.0 | 0.00 | 0.00 | 0.00 | 67 | 1018.3 |
| 20260831141153 | 88 | 258 | 2.0 | 2.0 | 0.00 | 0.00 | 0.00 | 69 | 1018.2 |
| 20260831140652 | 86 | 224 | 1.0 | 2.0 | 0.00 | 0.00 | 0.00 | 70 | 1018.0 |
| 20260831140147 | 86 | 150 | 2.0 | 3.0 | 0.00 | 0.00 | 0.00 | 72 | 1018.1 |
| 20260831135645 | 86 | 229 | 2.0 | 3.0 | 0.00 | 0.00 | 0.00 | 70 | 1018.1 |
| 20260831135141 | 88 | 248 | 2.0 | 3.0 | 0.00 | 0.00 | 0.00 | 68 | 1018.0 |
| 20260831134637 | 87 | 139 | 2.0 | 3.0 | 0.00 | 0.00 | 0.00 | 68 | 1018.1 |
| 20260831134132 | 87 | 301 | 0.0 | 2.0 | 0.00 | 0.00 | 0.00 | 70 | 1018.1 |
| 20260831133631 | 87 | 250 | 0.0 | 2.0 | 0.00 | 0.00 | 0.00 | 73 | 1018.0 |
| 20260831133126 | 87 | 217 | 1.0 | 3.0 | 0.00 | 0.00 | 0.00 | 73 | 1017.9 |
| 20260831132622 | 86 | 211 | 3.0 | 3.0 | 0.00 | 0.00 | 0.00 | 75 | 1017.9 |
| 20260831132120 | 86 | 255 | 2.0 | 3.0 | 0.00 | 0.00 | 0.00 | 76 | 1017.9 |
| 20260831131616 | 86 | 162 | 2.0 | 3.0 | 0.00 | 0.00 | 0.00 | 78 | 1017.8 |
| 20260831131112 | 87 | 220 | 1.0 | 2.0 | 0.00 | 0.00 | 0.00 | 77 | 1017.9 |
| 20260831130607 | 86 | 323 | 0.0 | 2.0 | 0.00 | 0.00 | 0.00 | 78 | 1017.8 |
| 20260831125601 | 85 | 181 | 1.0 | 2.0 | 0.00 | 0.00 | 0.00 | 83 | 1017.8 |
| 20260831125056 | 84 | 282 | 0.0 | 2.0 | 0.00 | 0.00 | 0.00 | 85 | 1017.7 |
| 20260831124553 | 84 | 133 | 2.0 | 2.0 | 0.00 | 0.00 | 0.00 | 88 | 1018.0 |
| 20260831124048 | 84 | 169 | 2.0 | 2.0 | 0.00 | 0.00 | 0.00 | 89 | 1017.9 |
| 20260831123548 | 83 | 50 | 0.0 | 2.0 | 0.00 | 0.00 | 0.00 | 92 | 1017.7 |
| 20260831123043 | 81 | 125 | 0.0 | 0.0 | 0.00 | 0.00 | 0.00 | 97 | 1017.8 |
| 20260831122542 | 80 | 68 | 2.0 | 2.0 | 0.00 | 0.00 | 0.00 | 99 | 1017.7 |
| 20260831122038 | 79 | 106 | 0.0 | 0.0 | 0.00 | 0.00 | 0.00 | 99 | 1017.5 |
| 20260831121538 | 78 | 107 | 0.0 | 2.0 | 0.00 | 0.00 | 0.00 | 99 | 1017.5 |
| 20260831121035 | 78 | 350 | 0.0 | 1.0 | 0.00 | 0.00 | 0.00 | 99 | 1017.6 |
| 20260831120534 | 77 | 7 | 0.0 | 1.0 | 0.00 | 0.00 | 0.00 | 99 | 1017.4 |
| 20260831120030 | 77 | 307 | 0.0 | 1.0 | 0.00 | 0.00 | 0.00 | 99 | 1017.3 |
| 20260831115525 | 76 | 315 | 0.0 | 0.0 | 0.00 | 0.00 | 0.00 | 99 | 1017.3 |
| 20260831115021 | 76 | 315 | 0.0 | 0.0 | 0.00 | 0.00 | 0.00 | 99 | 1017.3 |
| 20260831114520 | 76 | 51 | 0.0 | 0.0 | 0.00 | 0.00 | 0.00 | 99 | 1017.1 |
| 20260831114015 | 76 | 40 | 0.0 | 0.0 | 0.00 | 0.00 | 0.00 | 99 | 1017.1 |
| 20260831113514 | 75 | 309 | 0.0 | 0.0 | 0.00 | 0.00 | 0.00 | 99 | 1017.2 |
| 20260831113010 | 75 | 308 | 0.0 | 0.0 | 0.00 | 0.00 | 0.00 | 99 | 1017.0 |
| 20260831112509 | 75 | 319 | 0.0 | 0.0 | 0.00 | 0.00 | 0.00 | 99 | 1017.1 |
| 20260831112004 | 75 | 17 | 0.0 | 0.0 | 0.00 | 0.00 | 0.00 | 99 | 1017.2 |
| 20260831111500 | 75 | 17 | 0.0 | 1.0 | 0.00 | 0.00 | 0.00 | 99 | 1016.9 |
| 20260831110955 | 75 | 269 | 0.0 | 1.0 | 0.00 | 0.00 | 0.00 | 99 | 1016.8 |
| 20260831110450 | 75 | 294 | 0.0 | 0.0 | 0.00 | 0.00 | 0.00 | 99 | 1016.8 |
| 20260831105949 | 75 | 311 | 0.0 | 0.0 | 0.00 | 0.00 | 0.00 | 98 | 1016.7 |
| 20260831105445 | 75 | 319 | 0.0 | 0.0 | 0.00 | 0.00 | 0.00 | 98 | 1016.6 |
| 20260831104945 | 75 | 156 | 0.0 | 0.0 | 0.00 | 0.00 | 0.00 | 98 | 1016.7 |
| 20260831104441 | 75 | 333 | 0.0 | 0.0 | 0.00 | 0.00 | 0.00 | 99 | 1016.6 |
| 20260831103937 | 75 | 349 | 0.0 | 1.0 | 0.00 | 0.00 | 0.00 | 98 | 1016.5 |
| 20260831103432 | 75 | 319 | 0.0 | 1.0 | 0.00 | 0.00 | 0.00 | 98 | 1016.6 |
| 20260831102927 | 75 | 40 | 0.0 | 0.0 | 0.00 | 0.00 | 0.00 | 98 | 1016.6 |
| 20260831102427 | 75 | 22 | 0.0 | 0.0 | 0.00 | 0.00 | 0.00 | 99 | 1016.6 |
| 20260831101922 | 75 | 44 | 0.0 | 0.0 | 0.00 | 0.00 | 0.00 | 98 | 1016.4 |
| 20260831101417 | 75 | 224 | 0.0 | 0.0 | 0.00 | 0.00 | 0.00 | 98 | 1016.5 |
| 20260831100913 | 75 | 323 | 0.0 | 0.0 | 0.00 | 0.00 | 0.00 | 98 | 1016.3 |
| 20260831100409 | 75 | 286 | 0.0 | 1.0 | 0.00 | 0.00 | 0.00 | 98 | 1016.5 |
| 20260831095904 | 75 | 348 | 0.0 | 0.0 | 0.00 | 0.00 | 0.00 | 98 | 1016.2 |
| 20260831095403 | 75 | 351 | 0.0 | 0.0 | 0.00 | 0.00 | 0.00 | 98 | 1016.3 |
| 20260831094858 | 75 | 341 | 0.0 | 0.0 | 0.00 | 0.00 | 0.00 | 98 | 1016.0 |
| 20260831094354 | 75 | 345 | 0.0 | 1.0 | 0.00 | 0.00 | 0.00 | 98 | 1016.4 |
| 20260831093850 | 75 | 40 | 0.0 | 0.0 | 0.00 | 0.00 | 0.00 | 98 | 1016.2 |
| 20260831093344 | 75 | 139 | 0.0 | 0.0 | 0.00 | 0.00 | 0.00 | 98 | 1016.1 |
| 20260831092841 | 75 | 301 | 0.0 | 0.0 | 0.00 | 0.00 | 0.00 | 98 | 1016.2 |
| 20260831092337 | 75 | 290 | 0.0 | 1.0 | 0.00 | 0.00 | 0.00 | 98 | 1016.2 |
| 20260831091831 | 75 | 319 | 0.0 | 1.0 | 0.00 | 0.00 | 0.00 | 98 | 1016.4 |
| 20260831091327 | 75 | 351 | 0.0 | 0.0 | 0.00 | 0.00 | 0.00 | 98 | 1016.4 |
| 20260831090822 | 75 | 30 | 0.0 | 0.0 | 0.00 | 0.00 | 0.00 | 98 | 1016.1 |
| 20260831090318 | 75 | 301 | 0.0 | 1.0 | 0.00 | 0.00 | 0.00 | 98 | 1016.4 |